Location: Unspecified
(43.3830°N, 0.0000°E)
Time: 06:21:12
(UTC+00:00)

Vanguard 2 - Pass Details

Date: 18 June 2019
Orbit: 553 x 2938 km, 32.9° (Epoch: 18 July)

Event Time Altitude Azimuth Distance (km) Brightness Sun altitude
Rises 15:10:27 0° 271° (W) 5,300 12.5 46.5°
Reaches altitude 10° 15:14:16 10° 261° (W) 4,634 12.5 45.8°
Maximum altitude 15:25:01 28° 209° (SSW) 4,040 12.0 43.9°
Drops below altitude 10° 15:38:20 10° 160° (SSE) 5,750 12.0 41.5°
Sets 15:43:54 0° 150° (SSE) 6,766 12.1 40.5°
